TimeCDT,TemperatureF,Dew PointF,Humidity,Sea Level PressureIn,VisibilityMPH,Wind Direction,Wind SpeedMPH,Gust SpeedMPH,PrecipitationIn,Events,Conditions,WindDirDegrees,DateUTC
12:52 AM,42.1,21.0,43,30.42,10.0,SE,10.4,-,N/A,,Clear,140,2013-05-03 05:52:00
1:52 AM,39.9,21.0,47,30.41,10.0,SSE,6.9,-,N/A,,Clear,160,2013-05-03 06:52:00
2:52 AM,39.0,21.9,50,30.39,10.0,South,8.1,-,N/A,,Clear,170,2013-05-03 07:52:00
3:52 AM,37.9,21.9,53,30.38,10.0,South,6.9,-,N/A,,Clear,170,2013-05-03 08:52:00
4:52 AM,37.0,21.0,52,30.37,10.0,SSE,11.5,16.1,N/A,,Clear,160,2013-05-03 09:52:00
5:52 AM,35.1,19.9,54,30.37,10.0,South,4.6,-,N/A,,Clear,180,2013-05-03 10:52:00
6:52 AM,34.0,21.0,59,30.36,10.0,South,4.6,-,N/A,,Clear,190,2013-05-03 11:52:00
7:52 AM,37.0,21.0,52,30.35,10.0,South,5.8,-,N/A,,Clear,170,2013-05-03 12:52:00
8:52 AM,41.0,21.9,47,30.35,10.0,SSE,5.8,-,N/A,,Clear,160,2013-05-03 13:52:00
9:52 AM,44.1,23.0,43,30.33,10.0,SE,8.1,-,N/A,,Clear,130,2013-05-03 14:52:00
10:52 AM,48.9,24.1,38,30.30,10.0,Variable,6.9,-,N/A,,Clear,0,2013-05-03 15:52:00
11:52 AM,54.0,25.0,33,30.27,10.0,SE,9.2,-,N/A,,Clear,130,2013-05-03 16:52:00
12:52 PM,57.9,23.0,26,30.25,10.0,South,11.5,20.7,N/A,,Clear,170,2013-05-03 17:52:00
1:52 PM,60.1,21.0,22,30.24,10.0,South,11.5,-,N/A,,Clear,180,2013-05-03 18:52:00
2:52 PM,62.1,21.9,21,30.22,10.0,SE,15.0,20.7,N/A,,Clear,140,2013-05-03 19:52:00
3:52 PM,62.1,21.9,21,30.20,10.0,ESE,12.7,16.1,N/A,,Clear,110,2013-05-03 20:52:00
4:52 PM,63.0,23.0,22,30.19,10.0,SE,9.2,18.4,N/A,,Clear,140,2013-05-03 21:52:00
5:52 PM,63.0,23.0,22,30.19,10.0,SE,6.9,-,N/A,,Clear,130,2013-05-03 22:52:00
6:52 PM,61.0,23.0,23,30.19,10.0,East,13.8,-,N/A,,Clear,90,2013-05-03 23:52:00
7:52 PM,57.9,23.0,26,30.20,10.0,East,15.0,26.5,N/A,,Clear,90,2013-05-04 00:52:00
8:52 PM,53.1,25.0,34,30.23,10.0,East,10.4,-,N/A,,Clear,100,2013-05-04 01:52:00
9:52 PM,50.0,24.1,36,30.25,10.0,East,10.4,-,N/A,,Clear,100,2013-05-04 02:52:00
10:52 PM,48.9,23.0,36,30.26,10.0,East,8.1,-,N/A,,Clear,100,2013-05-04 03:52:00
11:52 PM,46.9,23.0,39,30.27,10.0,ESE,10.4,16.1,N/A,,Clear,120,2013-05-04 04:52:00